Glen Allan, MS

11:22 PM CDT on July 31, 2015 (GMT -0500)
Lake Hall Rd near Fawnwood Comm Ctr | | Change Station
CLOSE
Current Station
Personal Weather Station
Location: Lake Village, AR
Elevation: 118 ft
Nearby Weather Stations
Active Advisory: Flood Warning

Elev 118 ft 33.28 °N, 91.24 °W | Updated 1 minute ago

Clear
Clear
75.8 °F
Feels Like 77 °F
N
0.0
Wind Variable Wind from NNE
Gusts 0.0 mph

Today
High -- | Low -- °F
--% Chance of Precip.
Yesterday
High -- | Low -- °F
Precip. -- in
6:16 AM 8:03 PM
Full, 99% visible
Pressure 30.03 in
Visibility 10.0 miles
Clouds Clear
Heat Index 77 °F
Dew Point 69 °F
Humidity 80%
Rainfall 0.00 in
Snow Depth Not available.
UV 0 out of 12
Pollen 4.30 out of 12
Air Quality Not available.
Flu Activity Not available.
METAR KGLH 010353Z AUTO 01004KT 10SM CLR 23/20 A3001 RMK AO2 SLP167 T02330200

More Conditions Fewer Conditions

Pressure 30.03 in
Visibility 10.0 miles
Clouds Clear
Heat Index 77 °F
Dew Point 69 °F
Humidity 80%
Rainfall 0.00 in
Snow Depth Not available.
UV 0 out of 12
Pollen 4.30 out of 12
Air Quality Not available.
Flu Activity Not available.
METAR KGLH 010353Z AUTO 01004KT 10SM CLR 23/20 A3001 RMK AO2 SLP167 T02330200

More Conditions Fewer Conditions

10-Day Weather Forecast

×

Almanac

Astronomy

Jul. 31, 2015 Rise Set
Actual Time
Civil Twilight
Nautical Twilight
Astronomical Twilight
Moon
Length of Visible Light
Length of Day
Tomorrow will be .
, % of the Moon is Illuminated

Today's Extremes

State Highs State Lows

Community

WunderPhotos

Upload Photos

1,842,874 photos uploaded!

WunderBlogs® & News

Nearby

Air Quality

  Air Quality AQ Index Pollutant
Not available.

Snow Depth

Station Depth Elevation

Earthquake Activity

City Distance Mag. Time & Date
Minimum magnitude displayed is 2.5.

Coastal Water Temperatures

Place Temperature

Stations

Nearby Weather Stations

Station Location Temp. Windchill Dew Point Humidity Wind Precip. Elev Updated Type
                   
Flood Warning
Statement as of 9:42 PM CDT on July 31, 2015


The Flood Warning continues for the Mississippi River near Greenville
* until late Sunday night.
* At 9:00 PM Friday the stage was 48.8 feet.
* Minor flooding is occurring and minor flooding is forecast.
* Flood stage is 48.0 feet.
* Forecast... the river will continue falling and will fall below
flood stage by late Sunday morning.



              Flood observed forecast 7 am crest
location stg stg day time Sat sun Mon crest time date

Lower Mississippi River
Greenville 48 48.8 Fri 09 PM 48.6 48.1 47.1 below fs sun am




Lat... Lon 3277 9123 3340 9128 3340 9105 3283 9101
      3277 9101 3278 9111